STARLINK-1484, 45756

Orbit data source: Space-Track

STARLINK-1484, 45756 is a payload satellite in LEO that was launched on Sat, 13 Jun 2020 UTC via an FALCON 9 launch vehicle from the Air Force Eastern Test Range (AFETR). Payload-class satellites include a variety of spacecraft equipped with specific instruments for various scientific and technological missions. These include communications satellites like Starlink; space stations such as the ISS; scientific satellites like the Hubble; Earth observation satellites from companies like Planet Labs, Umbra, and HawkEye 360; GPS; miniature CubeSats for education and research; and military/defense satellites.

Loading next visibility...
Identifier
45756, 2020-038AC
Orbit
LEO
Last TLE update
13 hours ago
Origin
Manufacturer
SpaceX/Seattle
Mission
Partially operational Commercial Communications
Bus & Motor
STARLINK, Unknown motor
Mass
260 kg wet, ~248 kg dry
Launch date (UTC)
2020-06-13 (5 years ago)
Launch vehicle
FALCON 9
Launch site
Air Force Eastern Test Range (AFETR)
Object type
Payload
Rocket body
Debris
Shape & HBR
Box + 1 Pan, 8.86 m
Radar Cross Section
13.562 m², Large (>1 m²)

Expand to show TLE details & history

TLE from 13 hours ago
0 STARLINK-1484
1 45756U 20038AC  25140.11639826  .00022092  00000-0  58084-3 0  9991
2 45756  53.0232  48.8999 0004884  69.8657 290.2871 15.38524382273985
Epoch: 2025-05-20T02:47Z
TLE epoch observation values (Epoch: 2025-05-20T02:47:36.809Z)
Latitude
-0.00001°
Longitude
128.97724°
Altitude
450.205 km
Speed
7.644 km/s
True Right ascension
03h 15m 35s
True Declination
0° 00' 00"
Sunlit
Object was in daylight at epoch
Visualization orbit readout
Latitude
51.22444°
Longitude
-164.7827°
Altitude
453.165 km
Speed
7.649 km/s
Apparent Right ascension
10h 16m 12s
Apparent Declination
9° 24' 55"
Sunlit
Object is in daylight
Visualization observer readout
Local Sidereal Time
00:29:35
Azimuth
39.65° NE
Elevation
-31.812°
Doppler factor
1
Orbital elements
Apogee altitude
454.087 km
Perigee altitude
447.416 km
Semi-major axis
6,828.889 km
Eccentricity
0.00049
Inclination
53.0232°
RAAN
48.8999°
Arg. of periapsis
69.8657°
True anomaly
Unknown
Mean anomaly
290.2871°
Eccentric anomaly
Unknown
Mean motion
3.84608 °/min
Orbital period
93.6 mins
BSTAR
0.00058084
Loading maneuver chart data...
Loading SW <> Apogee altitude chart data...

STARLINK-1484 Visibility forecast

Observer location: undefined°, undefined°

Span
Click to sort rows by Start time (UTC) header in descending order
Start Az.
Max El. time (UTC)
Max El. Az.
Max El.
End time (UTC)
End Az.
5 mins2025-05-20 20:06:52.698Z197.311° SSW2025-05-20 20:08:52.698Z148.26° SSE32.172°2025-05-20 20:11:52.698Z67.516° E
4 mins2025-05-20 21:44:52.698Z287.379° WNW2025-05-20 21:46:52.698Z339.395° N23.718°2025-05-20 21:48:52.698Z22.79° NE
5 mins2025-05-21 02:39:52.698Z335.758° NNW2025-05-21 02:41:52.698Z34.753° NE30.816°2025-05-21 02:44:52.698Z100.42° ESE
4 mins2025-05-21 04:17:52.698Z260.765° W2025-05-21 04:18:52.698Z234.755° WSW22.705°2025-05-21 04:21:52.698Z173.455° S
|